F1PPH-1 Weather Reports


time (UTC)temp
F
wind
direction
speed
knots
gust
knots
rain 1hr
in
rain 24hr
in
rain mn
in
humidity
%
barometer
mb
20260510042433 64 0.0 0.0 0.00 0.00 0.00 49 1003.1
20260510033650 64 0.0 0.0 0.00 0.00 0.00 49 1003.4
20260510024832 65 0.0 0.0 0.00 0.00 0.00 48 1003.5
20260510020031 65 0.0 0.0 0.00 0.00 0.00 48 1003.6
20260510000537 67 0.0 0.0 0.00 0.00 0.00 46 1004.4
20260509231201 68 0.0 0.0 0.00 0.00 0.00 45 1004.6
20260509221201 68 0.0 0.0 0.00 0.00 0.00 44 1004.3
20260509211201 71 0.0 0.0 0.00 0.00 0.00 42 1004.3
20260509201201 75 0.0 0.0 0.00 0.00 0.00 41 1004.4
20260509192400 79 0.0 0.0 0.00 0.00 0.00 40 1003.8
20260509183600 82 0.0 0.0 0.00 0.00 0.00 39 1003.6
20260509174801 84 0.0 0.0 0.00 0.00 0.00 38 1003.5
20260509170000 86 0.0 0.0 0.00 0.00 0.00 38 1003.7
20260509161200 89 0.0 0.0 0.00 0.00 0.00 37 1003.9
20260509152359 94 0.0 0.0 0.00 0.00 0.00 36 1004.2
20260509143600 96 0.0 0.0 0.00 0.00 0.00 37 1004.7
20260509134758 96 0.0 0.0 0.00 0.00 0.00 37 1005.1
20260509130005 94 0.0 0.0 0.00 0.00 0.00 39 1005.2
20260509115957 93 0.0 0.0 0.00 0.00 0.00 40 1005.6
20260509111157 91 0.0 0.0 0.00 0.00 0.00 42 1006.4
20260509102357 88 0.0 0.0 0.00 0.00 0.00 44 1006.6
20260509084756 75 0.0 0.0 0.00 0.00 0.00 48 1007.0
20260509065956 59 0.0 0.0 0.00 0.00 0.00 50 1007.6
20260509050000 54 0.0 0.0 0.00 0.00 0.00 48 1007.4